Location: Bluff Heights
(33.7692°N, 118.1592°W)
Time: 13:06:54
(UTC+00:00)

S-56A Canister/Altair - Pass Details

Date: 24 July 2021
Orbit: 632 x 2500 km, 38.9° (Epoch: 25 September)

Event Time Altitude Azimuth Distance (km) Brightness Sun altitude
Rises 03:51:31 0° 276° (W) 6,173 13.4 -10.3°
Reaches altitude 10° 03:55:45 10° 279° (W) 5,107 12.9 -11.1°
Maximum altitude 04:10:19 70° 2° (N) 2,164 9.9 -13.6°
Drops below altitude 10° 04:20:45 10° 86° (E) 3,784 10.6 -15.3°
Enters shadow 04:21:23 - 87° (E) 3,955 10.7 -15.4°
